[[{"header":{"parameterUnit":"m.s-1","parameterCategory":2,"la1":30.2991,"la2":30.254,"lo1":-89.0895,"lo2":-89.0444,"dy":0.0017,"dx":0.0017,"nx":28,"ny":28,"refTime":"2025-05-19T09:00:00:Z","depth":"0","parameterNumber":2,"parameterNumberName":"U-component_of_CURRENTS"},"data":[0,0,0,0,0,0,0,0,0,0,0,0,0,0,0,0,0,0,0,0,0,0,0,0,0,0,0,0,0,0,0,0,0,0,0,0,0,0,0,0,0,0,0,0,0,0,0,0,0,0,0,0,0,0,0,0,0,0,0.2985,0.2986,0,0.3035,0.3036,0.3036,0.3053,0.3053,0.3053,0.3053,0.3024,0.3024,0.3023,0,0,0,0,0,0,0,0,0,0,0,0,0,0.2943,0.2943,0.2985,0.2986,0.2986,0.3035,0.3036,0.3036,0.3053,0.3053,0.3053,0.3052,0.3025,0.3024,0.3023,0,0,0,0,0,0,0,0,0,0,0,0,0,0.2973,0.2943,0.2985,0.3001,0.3002,0.3035,0.3036,0.3037,0.3053,0.3053,0.3053,0.3052,0.3025,0.3024,0.3023,0.3024,0,0,0.3021,0.302,0,0,0,0,0,0,0,0,0.2972,0.2975,0.2998,0.3,0.3002,0.3038,0.3011,0.3029,0.3053,0.3034,0.3052,0.3052,0.3022,0.3021,0.3032,0.3022,0.3021,0.302,0.302,0.302,0.3019,0,0,0,0,0,0,0,0.2969,0.2973,0.3005,0.2998,0.3001,0.3019,0.3022,0.3015,0.3027,0.3035,0.3037,0.3043,0.3022,0.3033,0.3031,0.3021,0.302,0.302,0.3019,0.3019,0.3078,0.308,0,0,0,0,0,0,0.2962,0.2971,0.3003,0.3006,0.2986,0.3019,0.3024,0.3026,0.3029,0.303,0.3043,0.3043,0.3035,0.3032,0.303,0.3097,0.302,0.3019,0.3018,0.3076,0.3079,0.3081,0,0,0,0,0,0,0.2961,0.2964,0.3001,0.299,0.2996,0.302,0.3023,0.3027,0.3043,0.3036,0.3035,0.3055,0.3034,0.3032,0.3057,0.3093,0.3018,0.3018,0.3074,0.3077,0.308,0.3186,0,0,0,0,0,0,0.2959,0.2963,0.2975,0.2989,0.2996,0.3047,0.3024,0.3029,0.3047,0.3048,0.3045,0.3042,0.3034,0.3058,0.3056,0.309,0.3017,0.3071,0.3075,0.3079,0.318,0.3192,0.3203,0,0,0,0,0,0.2958,0.299,0.2975,0.298,0.3007,0.3049,0.3055,0.307,0.3048,0.3077,0.3077,0.3043,0.3081,0.306,0.3056,0.3091,0.3069,0.3074,0.3079,0.3175,0.319,0.3203,0,0,0,0,0,0,0.2993,0.2995,0.2979,0.3012,0.3033,0.3052,0.3083,0.3073,0.3095,0.3089,0.3069,0.3068,0.3112,0.3083,0.306,0.3121,0.3069,0.3073,0.3143,0.3157,0.3169,0.3196,0.3016,0,0,0,0,0,0.2999,0.3012,0.3021,0.3047,0.3058,0.3062,0.308,0.3084,0.3099,0.3107,0.3101,0.3101,0.3128,0.3127,0.3144,0.3163,0.3164,0.3184,0.3196,0.3206,0.3227,0.3275,0.3294,0.3097,0.3097,0.3096,0,0,0.3021,0.3021,0.3031,0.3054,0.3066,0.3102,0.3074,0.3107,0.3139,0.3098,0.314,0.3146,0.3147,0.3195,0.3207,0.3171,0.3261,0.3212,0.322,0.3236,0.3282,0.3302,0.3319,0.31,0.3099,0.3099,0,0,0.3066,0.3068,0.309,0.3113,0.3132,0.3141,0.3149,0.3165,0.3181,0.322,0.321,0.3246,0.3254,0.3282,0.3292,0.3372,0.3333,0.3359,0.3425,0.3472,0.3489,0.3504,0.3525,0.3541,0.335,0.335,0.335,0,0.3095,0.3109,0.311,0.3142,0.3162,0.3158,0.3191,0.3223,0.3245,0.3257,0.3249,0.3308,0.3311,0.3378,0.3419,0.3402,0.3406,0.3371,0.3489,0.3503,0.3517,0.3535,0.3551,0.3356,0.3355,0.3354,0.3354,0,0.3142,0.3168,0.3192,0.3217,0.3247,0.3281,0.3308,0.3337,0.334,0.3356,0.3422,0.3448,0.3476,0.349,0.3485,0.3575,0.3541,0.351,0.3454,0.3543,0.3556,0.3571,0.3364,0.3362,0.336,0.3359,0,0,0.3162,0.3212,0.3219,0.3224,0.3281,0.3295,0.3369,0.3413,0.3433,0.349,0.3534,0.3618,0.3613,0.3628,0.3623,0.3674,0.3781,0.3635,0.3635,0.3659,0.387,0.3759,0.3764,0.3764,0.3767,0.377,0.3839,0,0.3191,0.324,0.3268,0.3317,0.3337,0.3371,0.3426,0.3469,0.3504,0.3553,0.3613,0.3658,0.3669,0.3677,0.3746,0.3775,0.3826,0.3764,0.3778,0.3779,0.3672,0.3781,0.3592,0.3631,0.3854,0.3856,0.3858,0,0.3209,0.3235,0.3281,0.332,0.3332,0.3368,0.3414,0.3465,0.3553,0.3584,0.3663,0.3696,0.381,0.3787,0.3922,0.3877,0.3894,0.3914,0.3915,0.3789,0.3697,0.3579,0.3649,0.3601,0.388,0.3879,0.3877,0,0.3161,0.3233,0.3253,0.3275,0.3337,0.3357,0.3389,0.3463,0.3494,0.3599,0.3634,0.3762,0.3811,0.3902,0.3965,0.3947,0.4086,0.405,0.3968,0.3959,0.3791,0.3761,0.3818,0.4142,0.4141,0.4141,0.4141,0,0.3155,0.317,0.3225,0.3233,0.3253,0.3306,0.3331,0.3391,0.3471,0.3511,0.3634,0.369,0.3843,0.3933,0.3994,0.4036,0.411,0.4014,0.3986,0.3819,0.3792,0.3733,0.3727,0.4144,0.4143,0.4143,0.4142,0,0.309,0.3137,0.3156,0.3213,0.3227,0.3233,0.3289,0.3304,0.3396,0.3462,0.3501,0.3655,0.3784,0.3912,0.4041,0.4034,0.3992,0.4077,0.3861,0.3807,0.3666,0.3671,0.3546,0.347,0.4015,0.4012,0.4011,0,0.3055,0.3061,0.3116,0.3119,0.314,0.3159,0.3171,0.3259,0.3281,0.3426,0.3452,0.3603,0.3683,0.3842,0.388,0.3964,0.3915,0.3801,0.374,0.3663,0.3651,0.3517,0.3454,0.3562,0.3557,0.3552,0.3549,0,0.2981,0.3005,0.3015,0.3036,0.3046,0.3053,0.3079,0.3091,0.3194,0.3255,0.3339,0.3416,0.3564,0.3571,0.3663,0.3685,0.3626,0.3711,0.37,0.3373,0.3164,0.3072,0.3505,0.351,0.3514,0.3517,0.3519,0.3521,0.2908,0.291,0.293,0.2935,0.2943,0.2929,0.2901,0.2932,0.2957,0.2996,0.314,0.3169,0.3286,0.3393,0.3401,0.332,0.3354,0.324,0.3276,0.3165,0.3018,0.3358,0.3283,0.3285,0.3287,0.3289,0.3291,0,0.2811,0.2828,0.2827,0.2822,0.2776,0.2824,0.2817,0.276,0.2736,0.2789,0.2819,0.2873,0.2887,0.3001,0.3014,0.2912,0.2783,0.2869,0.2674,0.2657,0.3022,0.2931,0.2691,0.2691,0.2691,0.2691,0.2691,0.2691,0.2762,0.2737,0.2747,0.2657,0.2639,0.255,0.2525,0.2457,0.2453,0.2389,0.2382,0.244,0.2692,0.2808,0.2749,0.2678,0.2553,0.238,0.2475,0.2783,0.2821,0.2857,0.2771,0.2501,0.2501,0.1946,0.1942,0.1939]},{"header":{"parameterUnit":"m.s-1","parameterCategory":2,"la1":30.2991,"la2":30.254,"lo1":-89.0895,"lo2":-89.0444,"dy":0.0017,"dx":0.0017,"nx":28,"ny":28,"refTime":"2025-05-19T09:00:00:Z","depth":"0","parameterNumber":3,"parameterNumberName":"V-component_of_CURRENTS"},"data":[0,0,0,0,0,0,0,0,0,0,0,0,0,0,0,0,0,0,0,0,0,0,0,0,0,0,0,0,0,0,0,0,0,0,0,0,0,0,0,0,0,0,0,0,0,0,0,0,0,0,0,0,0,0,0,0,0,0,0.0427,0.0427,0,0.0407,0.0406,0.0406,0.0382,0.0382,0.0382,0.0382,0.0307,0.0306,0.0304,0,0,0,0,0,0,0,0,0,0,0,0,0,0.0366,0.0367,0.0427,0.0427,0.0427,0.0407,0.0406,0.0406,0.0382,0.0382,0.0382,0.0382,0.0308,0.0306,0.0304,0,0,0,0,0,0,0,0,0,0,0,0,0,0.0372,0.0368,0.0427,0.0414,0.0413,0.0407,0.0406,0.0406,0.0382,0.0382,0.0382,0.0382,0.0309,0.0306,0.0303,0.0292,0,0,0.0295,0.0294,0,0,0,0,0,0,0,0,0.0372,0.0374,0.0416,0.0415,0.0414,0.0399,0.0357,0.0366,0.0382,0.0392,0.0382,0.0381,0.0334,0.0329,0.0324,0.0289,0.0285,0.0295,0.0293,0.0292,0.0291,0,0,0,0,0,0,0,0.0371,0.0374,0.0417,0.0416,0.0415,0.0382,0.0383,0.0359,0.0362,0.0391,0.039,0.0391,0.0333,0.0327,0.0322,0.0284,0.0295,0.0292,0.0291,0.029,0.0266,0.0267,0,0,0,0,0,0,0.0383,0.0375,0.0418,0.0417,0.0394,0.0384,0.0385,0.0402,0.0364,0.0359,0.0391,0.039,0.0332,0.0325,0.0319,0.0344,0.0292,0.0289,0.0288,0.0265,0.0266,0.0268,0,0,0,0,0,0,0.0382,0.0387,0.0419,0.0395,0.0397,0.0386,0.0405,0.0402,0.0399,0.0365,0.0358,0.0391,0.0331,0.0323,0.032,0.034,0.0288,0.0286,0.0264,0.0266,0.0267,0.0368,0,0,0,0,0,0,0.038,0.0388,0.0397,0.0397,0.0399,0.0422,0.0405,0.0402,0.04,0.0398,0.0363,0.0355,0.033,0.0324,0.0317,0.0335,0.0284,0.0263,0.0265,0.0267,0.0363,0.0372,0.038,0,0,0,0,0,0.0378,0.0401,0.0399,0.0403,0.0416,0.0423,0.0421,0.0409,0.0401,0.0404,0.0392,0.0357,0.033,0.0323,0.0314,0.0332,0.0262,0.0264,0.0266,0.0359,0.0371,0.038,0,0,0,0,0,0,0.0375,0.04,0.0398,0.0425,0.0425,0.0419,0.0422,0.0414,0.0406,0.0404,0.0372,0.0364,0.037,0.0335,0.0328,0.033,0.0289,0.0289,0.0362,0.0373,0.0381,0.0404,0.0281,0,0,0,0,0,0.0381,0.0405,0.0415,0.0433,0.0438,0.0429,0.0429,0.0423,0.0418,0.0414,0.0395,0.0376,0.0371,0.0361,0.0345,0.0343,0.031,0.0347,0.0356,0.0364,0.0376,0.0358,0.0366,0.0275,0.0275,0.0275,0,0,0.038,0.0399,0.0409,0.0433,0.0432,0.0452,0.0428,0.0434,0.0453,0.0406,0.0423,0.0405,0.0379,0.0389,0.0386,0.0362,0.037,0.0367,0.0374,0.0382,0.0361,0.037,0.0378,0.0277,0.0276,0.0276,0,0,0.0395,0.0414,0.0438,0.0449,0.0459,0.0462,0.0468,0.0469,0.0473,0.0486,0.0467,0.0471,0.0445,0.0446,0.044,0.0484,0.0421,0.0466,0.0524,0.0506,0.0514,0.052,0.0481,0.0483,0.0466,0.0466,0.0466,0,0.0388,0.0433,0.044,0.0468,0.0486,0.0474,0.0503,0.0509,0.0508,0.0525,0.0502,0.0508,0.0481,0.0514,0.053,0.0506,0.0472,0.0489,0.0519,0.0524,0.0529,0.0487,0.0488,0.0471,0.047,0.047,0.0469,0,0.0421,0.0458,0.0475,0.0516,0.0533,0.0555,0.0573,0.0589,0.0592,0.0598,0.0629,0.0606,0.0611,0.0601,0.0579,0.0605,0.0562,0.0537,0.0496,0.0545,0.0496,0.0496,0.0478,0.0476,0.0475,0.0474,0,0,0.0403,0.0484,0.0488,0.0527,0.0565,0.0585,0.063,0.0671,0.0712,0.0706,0.0759,0.0752,0.0739,0.0732,0.0704,0.0687,0.0686,0.0628,0.0625,0.0595,0.0627,0.0604,0.06,0.0661,0.0662,0.0662,0.0577,0,0.0423,0.0498,0.0531,0.0599,0.0643,0.0667,0.0716,0.075,0.0774,0.0819,0.0813,0.0843,0.0789,0.0798,0.0778,0.0723,0.0689,0.071,0.0579,0.0575,0.0554,0.0601,0.0582,0.0505,0.0575,0.0575,0.0575,0,0.0448,0.05,0.0575,0.0672,0.0692,0.0727,0.0813,0.0855,0.0914,0.0935,0.0963,0.0955,0.0963,0.0898,0.0824,0.0837,0.0739,0.0677,0.0671,0.0618,0.0552,0.0468,0.05,0.0395,0.0573,0.0573,0.0573,0,0.0449,0.0537,0.0605,0.0633,0.0728,0.077,0.0817,0.0886,0.0947,0.1009,0.1058,0.1053,0.1061,0.0967,0.0853,0.0833,0.075,0.0703,0.0584,0.0579,0.0522,0.0513,0.0445,0.0628,0.0628,0.0628,0.0628,0,0.0482,0.0536,0.0611,0.065,0.0736,0.0789,0.0885,0.0935,0.1023,0.112,0.1115,0.118,0.1077,0.1026,0.0893,0.0753,0.0777,0.0608,0.0568,0.0555,0.055,0.0421,0.0359,0.0625,0.0625,0.0626,0.0627,0,0.05,0.0545,0.0627,0.0716,0.0746,0.0808,0.0932,0.1011,0.1079,0.1207,0.1237,0.1271,0.1218,0.1094,0.0943,0.081,0.0599,0.0599,0.0586,0.0548,0.0345,0.0288,0.0171,0.0115,0.0462,0.0461,0.0461,0,0.0525,0.0565,0.0663,0.0715,0.0762,0.0855,0.0937,0.103,0.113,0.1272,0.1348,0.1339,0.1362,0.1142,0.0914,0.0687,0.0563,0.0493,0.0458,0.0349,0.0256,0.0221,0.018,0.0405,0.0404,0.0403,0.0402,0,0.056,0.0587,0.0654,0.0761,0.0845,0.096,0.1082,0.1171,0.1309,0.1418,0.1548,0.1571,0.1378,0.117,0.086,0.0688,0.0423,0.0466,0.036,0.0223,0.0174,0.0095,0.0429,0.0394,0.0395,0.0396,0.0396,0.0396,0.0575,0.0627,0.0709,0.082,0.0922,0.1074,0.1192,0.1335,0.1504,0.1689,0.1676,0.1728,0.1411,0.1006,0.0756,0.0334,0.035,0.0194,0.0136,0.0113,0.0065,0.0382,0.0305,0.0305,0.0305,0.0306,0.0306,0,0.0603,0.067,0.0768,0.0912,0.1046,0.1099,0.1306,0.1444,0.166,0.1775,0.1866,0.1746,0.133,0.093,0.0374,0.0072,-0.0042,-0.0088,-0.0147,-0.0173,0.0108,0.0115,-0.0014,-0.0014,-0.0013,-0.0013,-0.0013,-0.0013,0.0626,0.0714,0.0776,0.0992,0.1109,0.1315,0.145,0.1643,0.1778,0.1943,0.1981,0.1987,0.1734,0.0649,-0.0025,-0.0183,-0.0362,-0.0432,-0.0499,-0.0315,-0.0293,-0.0272,-0.0278,-0.0487,-0.0488,-0.0753,-0.0756,-0.0758]}],[{"header":{"parameterUnit":"m.s-1","parameterCategory":2,"la1":30.2991,"la2":30.254,"lo1":-89.0895,"lo2":-89.0444,"dy":0.0017,"dx":0.0017,"nx":28,"ny":28,"refTime":"2025-05-19T09:00:00:Z","depth":"2","parameterNumber":2,"parameterNumberName":"U-component_of_CURRENTS"},"data":[0,0,0,0,0,0,0,0,0,0,0,0,0,0,0,0,0,0,0,0,0,0,0,0,0,0,0,0,0,0,0,0,0,0,0,0,0,0,0,0,0,0,0,0,0,0,0,0,0,0,0,0,0,0,0,0,0,0,0.2778,0.2778,0,0.2863,0.2864,0.2865,0.2921,0.2921,0.2921,0.2921,0.289,0.2889,0.2888,0,0,0,0,0,0,0,0,0,0,0,0,0,0.2697,0.2698,0.2778,0.2779,0.2779,0.2863,0.2864,0.2866,0.2921,0.2921,0.2921,0.2921,0.2891,0.289,0.2888,0,0,0,0,0,0,0,0,0,0,0,0,0,0.2753,0.2698,0.2777,0.2816,0.282,0.2863,0.2864,0.2866,0.2921,0.2921,0.2921,0.2921,0.2891,0.289,0.2888,0.2872,0,0,0.2883,0.2883,0,0,0,0,0,0,0,0,0.275,0.2756,0.2809,0.2813,0.2818,0.288,0.2825,0.2862,0.292,0.2884,0.2921,0.2922,0.2875,0.2875,0.2894,0.2871,0.2869,0.2883,0.2882,0.2882,0.2881,0,0,0,0,0,0,0,0.2746,0.2753,0.2813,0.281,0.2816,0.2841,0.2849,0.2833,0.2875,0.2887,0.2891,0.2898,0.2877,0.2895,0.2893,0.2869,0.2883,0.2882,0.2881,0.288,0.2921,0.2923,0,0,0,0,0,0,0.2731,0.2749,0.281,0.2815,0.2783,0.2842,0.2851,0.2861,0.2878,0.2882,0.2898,0.29,0.2898,0.2895,0.2892,0.2964,0.2882,0.288,0.2879,0.2919,0.2922,0.2924,0,0,0,0,0,0,0.2729,0.2735,0.2807,0.2783,0.2794,0.2842,0.2854,0.2863,0.2901,0.2888,0.2889,0.2929,0.2898,0.2894,0.2921,0.2959,0.288,0.2878,0.2917,0.292,0.2923,0.3048,0,0,0,0,0,0,0.2726,0.2734,0.2749,0.2782,0.2794,0.2865,0.2853,0.2864,0.2903,0.2908,0.2914,0.2911,0.2898,0.2924,0.2919,0.2955,0.2877,0.2915,0.2918,0.2922,0.3041,0.3055,0.3066,0,0,0,0,0,0.2723,0.2751,0.2749,0.2757,0.2809,0.2867,0.2877,0.2913,0.2904,0.2943,0.2949,0.2912,0.2944,0.2924,0.2919,0.2955,0.2913,0.2917,0.2922,0.3035,0.3052,0.3066,0,0,0,0,0,0,0.2746,0.2759,0.2758,0.2795,0.2837,0.2876,0.2912,0.2922,0.2958,0.2952,0.2938,0.2937,0.2982,0.2946,0.2924,0.2979,0.2921,0.2925,0.3009,0.3024,0.3037,0.3057,0.2876,0,0,0,0,0,0.2748,0.2761,0.2792,0.2825,0.2843,0.2874,0.2902,0.292,0.2948,0.2966,0.2967,0.2967,0.2992,0.2991,0.3002,0.3018,0.3005,0.3037,0.305,0.306,0.3074,0.3112,0.313,0.2939,0.2939,0.2939,0,0,0.2768,0.2775,0.2786,0.2828,0.2857,0.291,0.2895,0.2941,0.2985,0.295,0.3008,0.3015,0.3011,0.3056,0.3068,0.303,0.3106,0.3066,0.3076,0.3084,0.3119,0.3137,0.3154,0.2942,0.2941,0.2941,0,0,0.2816,0.2819,0.2849,0.2881,0.2918,0.2942,0.2958,0.2999,0.3024,0.3075,0.3071,0.3111,0.3121,0.3147,0.3155,0.3235,0.3184,0.3222,0.3288,0.3326,0.3342,0.3356,0.3357,0.337,0.3214,0.3214,0.3214,0,0.2852,0.2874,0.2875,0.2917,0.2945,0.2961,0.3012,0.305,0.3095,0.3111,0.3109,0.3174,0.3176,0.3242,0.3286,0.3267,0.326,0.3233,0.3344,0.3357,0.337,0.3367,0.338,0.3221,0.322,0.3219,0.3219,0,0.29,0.2942,0.2968,0.3014,0.3052,0.3098,0.3134,0.3172,0.3189,0.3215,0.3282,0.3308,0.3343,0.3357,0.3354,0.3438,0.3396,0.3369,0.3308,0.3397,0.3388,0.3399,0.323,0.3228,0.3226,0.3224,0,0,0.2926,0.2993,0.2999,0.3025,0.3096,0.3119,0.32,0.3262,0.3288,0.3351,0.3405,0.3486,0.3484,0.3496,0.3493,0.3533,0.3627,0.3493,0.3492,0.3498,0.3686,0.3474,0.3464,0.3617,0.362,0.3622,0.3642,0,0.2973,0.3042,0.3068,0.3148,0.319,0.3224,0.3286,0.3333,0.3375,0.3431,0.3479,0.3531,0.3539,0.3554,0.3612,0.3632,0.3664,0.3623,0.3594,0.3593,0.3398,0.3473,0.3247,0.3229,0.3653,0.3654,0.3656,0,0.2995,0.3038,0.3114,0.318,0.3197,0.3246,0.3301,0.3358,0.3443,0.3474,0.3552,0.3582,0.3687,0.366,0.3762,0.3733,0.3727,0.373,0.373,0.3497,0.3402,0.321,0.3233,0.3674,0.3672,0.3671,0.367,0,0.2952,0.3056,0.3102,0.3129,0.3221,0.3248,0.329,0.3363,0.3393,0.3499,0.3537,0.3652,0.37,0.3761,0.3795,0.3785,0.387,0.3844,0.3642,0.3626,0.3408,0.3366,0.3898,0.3898,0.3897,0.3897,0.3897,0,0.2961,0.3,0.3079,0.3099,0.3142,0.3205,0.3243,0.3306,0.3386,0.3422,0.3545,0.3592,0.373,0.3791,0.382,0.3763,0.389,0.3667,0.3626,0.3439,0.3402,0.3763,0.3747,0.3898,0.3898,0.3898,0.3898,0,0.2906,0.2971,0.3026,0.3106,0.3126,0.3144,0.3207,0.3223,0.3318,0.338,0.3419,0.3567,0.3674,0.3769,0.3852,0.3744,0.3738,0.3671,0.3422,0.3348,0.3464,0.3455,0.3462,0.3454,0.3448,0.3443,0.3439,0,0.2882,0.2907,0.2988,0.3004,0.3042,0.3076,0.3091,0.3182,0.3204,0.3341,0.3362,0.3503,0.3517,0.3557,0.353,0.3513,0.3647,0.3171,0.3101,0.3465,0.3425,0.3425,0.3424,0.2876,0.2868,0.2861,0.2855,0,0.283,0.2859,0.2883,0.2928,0.2951,0.2967,0.3,0.3009,0.311,0.3143,0.3197,0.321,0.3284,0.3156,0.3103,0.3059,0.3163,0.3016,0.3504,0.299,0.2905,0.2868,0.2888,0.2793,0.2799,0.2804,0.2807,0.281,0.276,0.2772,0.2803,0.2831,0.285,0.2841,0.281,0.2816,0.2808,0.2801,0.2941,0.2851,0.2872,0.2685,0.2609,0.2578,0.278,0.2614,0.2641,0.2673,0.257,0.2476,0.2264,0.2267,0.2269,0.2272,0.2274,0,0.2667,0.2696,0.2705,0.2723,0.267,0.2738,0.2725,0.263,0.2535,0.254,0.251,0.2269,0.2131,0.2232,0.207,0.1963,0.2004,0.1889,0.1967,0.2028,0.2083,0.1955,0.1483,0.1481,0.1478,0.1476,0,0,0.2624,0.2609,0.2624,0.2538,0.253,0.2437,0.2404,0.2253,0.2195,0.2012,0.1927,0.2019,0.2088,0.1766,0.1719,0.1587,0.1798,0.1514,0.2152,0.2306,0.2358,0.2501,0.2369,0,0,0,0,0]},{"header":{"parameterUnit":"m.s-1","parameterCategory":2,"la1":30.2991,"la2":30.254,"lo1":-89.0895,"lo2":-89.0444,"dy":0.0017,"dx":0.0017,"nx":28,"ny":28,"refTime":"2025-05-19T09:00:00:Z","depth":"2","parameterNumber":3,"parameterNumberName":"V-component_of_CURRENTS"},"data":[0,0,0,0,0,0,0,0,0,0,0,0,0,0,0,0,0,0,0,0,0,0,0,0,0,0,0,0,0,0,0,0,0,0,0,0,0,0,0,0,0,0,0,0,0,0,0,0,0,0,0,0,0,0,0,0,0,0,0.0283,0.0283,0,0.0275,0.0275,0.0275,0.027,0.027,0.027,0.027,0.0195,0.0193,0.0191,0,0,0,0,0,0,0,0,0,0,0,0,0,0.0204,0.0206,0.0283,0.0283,0.0283,0.0275,0.0275,0.0275,0.027,0.027,0.027,0.027,0.0195,0.0193,0.019,0,0,0,0,0,0,0,0,0,0,0,0,0,0.0221,0.0207,0.0283,0.028,0.028,0.0275,0.0275,0.0275,0.027,0.027,0.027,0.027,0.0196,0.0193,0.019,0.017,0,0,0.0181,0.0179,0,0,0,0,0,0,0,0,0.022,0.0224,0.0281,0.0281,0.028,0.0274,0.0219,0.0236,0.027,0.0273,0.027,0.027,0.0215,0.0211,0.0209,0.0166,0.0163,0.018,0.0178,0.0177,0.0176,0,0,0,0,0,0,0,0.0219,0.0224,0.0279,0.0281,0.028,0.0248,0.0252,0.0222,0.0242,0.0273,0.0273,0.0273,0.0215,0.0212,0.0207,0.0162,0.018,0.0178,0.0176,0.0175,0.0138,0.0139,0,0,0,0,0,0,0.0227,0.0224,0.028,0.0279,0.0251,0.025,0.0254,0.0276,0.0244,0.024,0.0273,0.0273,0.0217,0.0211,0.0204,0.0232,0.0177,0.0174,0.0173,0.0137,0.0138,0.0139,0,0,0,0,0,0,0.0226,0.0233,0.028,0.025,0.0254,0.0252,0.0276,0.0275,0.0283,0.0245,0.0239,0.0283,0.0217,0.0209,0.0204,0.0227,0.0173,0.017,0.0136,0.0138,0.0139,0.0252,0,0,0,0,0,0,0.0224,0.0233,0.0246,0.0251,0.0256,0.0285,0.0276,0.0275,0.0283,0.0283,0.0251,0.0244,0.0217,0.0209,0.0201,0.0222,0.0168,0.0135,0.0137,0.0139,0.0247,0.0257,0.0266,0,0,0,0,0,0.0221,0.024,0.0247,0.0253,0.0277,0.0286,0.0285,0.0282,0.0283,0.0289,0.0281,0.0245,0.0213,0.0208,0.0198,0.0218,0.0134,0.0136,0.0138,0.0243,0.0255,0.0266,0,0,0,0,0,0,0.0211,0.0242,0.025,0.0278,0.0285,0.0285,0.0287,0.029,0.0289,0.0287,0.0259,0.0251,0.0257,0.0218,0.0213,0.0211,0.0166,0.0166,0.0249,0.026,0.0269,0.0287,0.0165,0,0,0,0,0,0.0217,0.024,0.0259,0.0279,0.0287,0.0291,0.0293,0.0293,0.0293,0.0293,0.0279,0.026,0.0255,0.0244,0.0225,0.0221,0.0181,0.0225,0.0234,0.0242,0.025,0.0225,0.0233,0.0146,0.0146,0.0146,0,0,0.0215,0.0236,0.0246,0.0277,0.0283,0.0309,0.0292,0.03,0.0325,0.0282,0.0308,0.0291,0.0262,0.027,0.0267,0.0242,0.0244,0.0245,0.0252,0.0255,0.0228,0.0236,0.0244,0.0147,0.0147,0.0147,0,0,0.0227,0.0247,0.0274,0.0287,0.0303,0.0313,0.0323,0.0334,0.0342,0.0361,0.0347,0.0353,0.0328,0.0328,0.0321,0.0364,0.0297,0.0347,0.0406,0.0382,0.0389,0.0395,0.0351,0.0352,0.0348,0.0348,0.0349,0,0.0224,0.0273,0.0278,0.0308,0.033,0.0326,0.0364,0.037,0.038,0.0399,0.0379,0.0391,0.0362,0.0396,0.0413,0.0387,0.035,0.0371,0.0396,0.0401,0.0405,0.0358,0.0357,0.0354,0.0353,0.0353,0.0352,0,0.0258,0.03,0.0315,0.0367,0.0386,0.041,0.0431,0.0453,0.0464,0.0475,0.0507,0.0483,0.0494,0.0484,0.0461,0.0485,0.0442,0.0416,0.0373,0.0421,0.0367,0.0365,0.0362,0.036,0.0358,0.0357,0,0,0.0249,0.033,0.0333,0.038,0.0422,0.0445,0.0494,0.0545,0.059,0.0586,0.0647,0.0636,0.0624,0.0616,0.059,0.0566,0.0561,0.0506,0.0502,0.0471,0.049,0.0435,0.0426,0.0537,0.0537,0.0538,0.044,0,0.0281,0.0361,0.0391,0.047,0.0522,0.0546,0.06,0.0636,0.0662,0.0712,0.0698,0.0732,0.0674,0.0689,0.0662,0.0601,0.056,0.0588,0.044,0.0435,0.0389,0.0424,0.0413,0.0323,0.0437,0.0436,0.0436,0,0.0311,0.0367,0.0455,0.0558,0.0581,0.0624,0.0718,0.0761,0.0818,0.0839,0.0867,0.0855,0.0858,0.0789,0.0698,0.0717,0.061,0.0539,0.0533,0.0442,0.0377,0.0292,0.0313,0.0431,0.0432,0.0432,0.0432,0,0.0318,0.0415,0.0496,0.0524,0.0629,0.0677,0.073,0.0799,0.0859,0.0922,0.0971,0.096,0.0968,0.0858,0.0725,0.0709,0.0599,0.0557,0.0397,0.0391,0.0332,0.032,0.0463,0.0463,0.0464,0.0464,0.0464,0,0.0358,0.0422,0.0506,0.0549,0.0648,0.0703,0.0808,0.086,0.0948,0.1041,0.1035,0.1095,0.0982,0.0916,0.0765,0.0587,0.0626,0.0413,0.037,0.0369,0.0362,0.0416,0.0412,0.046,0.0461,0.0462,0.0462,0,0.0379,0.0432,0.0529,0.0629,0.0662,0.0731,0.0859,0.094,0.1009,0.1134,0.1164,0.1193,0.1128,0.0987,0.0812,0.0641,0.0473,0.0383,0.0382,0.034,0.0263,0.0266,0.0203,0.0201,0.0199,0.0197,0.0195,0,0.0408,0.0455,0.0566,0.0626,0.068,0.0781,0.0866,0.0961,0.1061,0.1197,0.1271,0.1256,0.1238,0.0969,0.0722,0.0454,0.0447,0.0227,0.0193,0.0276,0.024,0.0247,0.0252,0.0151,0.0149,0.0147,0.0146,0,0.0449,0.048,0.0553,0.0673,0.0766,0.0885,0.1011,0.1101,0.1237,0.1331,0.1442,0.1424,0.1199,0.0942,0.0582,0.0396,0.0279,0.0186,0.0288,0.0222,0.022,0.0187,0.0195,0.0133,0.0135,0.0136,0.0136,0.0137,0.0465,0.0522,0.0611,0.0734,0.0843,0.1,0.1118,0.1245,0.1397,0.1544,0.1526,0.1479,0.119,0.0726,0.0441,0.0166,0.0183,0.0038,0.0046,0.0054,0.0069,0.0064,-0.005,-0.005,-0.005,-0.005,-0.005,0,0.0492,0.057,0.0673,0.0831,0.0965,0.1026,0.1233,0.1347,0.1524,0.1574,0.1615,0.1313,0.0992,0.0708,0.0269,-0.0031,-0.0034,-0.0107,-0.0046,-0.0033,-0.0021,-0.0006,-0.0149,-0.0149,-0.015,-0.015,0,0,0.052,0.0616,0.0682,0.0907,0.103,0.1236,0.1369,0.1501,0.158,0.1611,0.1556,0.1435,0.1053,0.0717,0.0355,0.0114,0.0107,0.0059,0.0159,0.0286,0.0301,0.0073,0.0111,0,0,0,0,0]}],[{"header":{"parameterUnit":"m.s-1","parameterCategory":2,"la1":30.2991,"la2":30.254,"lo1":-89.0895,"lo2":-89.0444,"dy":0.0017,"dx":0.0017,"nx":28,"ny":28,"refTime":"2025-05-19T09:00:00:Z","depth":"4","parameterNumber":2,"parameterNumberName":"U-component_of_CURRENTS"},"data":[0,0,0,0,0,0,0,0,0,0,0,0,0,0,0,0,0,0,0,0,0,0,0,0,0,0,0,0,0,0,0,0,0,0,0,0,0,0,0,0,0,0,0,0,0,0,0,0,0,0,0,0,0,0,0,0,0,0,0.0318,0.0317,0,0.0236,0.0235,0.0235,0.0398,0.0403,0.0408,0.0413,0.0837,0.0843,0.0849,0,0,0,0,0,0,0,0,0,0,0,0,0,0.0358,0.0358,0.0318,0.0316,0.0315,0.0236,0.0235,0.0234,0.0397,0.0403,0.0409,0.0415,0.0834,0.0842,0.085,0,0,0,0,0,0,0,0,0,0,0,0,0,0.0318,0.0358,0.0318,0.0385,0.039,0.0236,0.0235,0.0234,0.0396,0.0403,0.0411,0.0418,0.0832,0.0841,0.0851,0.0757,0,0,0.0881,0.0885,0,0,0,0,0,0,0,0,0.032,0.0317,0.0376,0.038,0.0386,0.0333,0.0404,0.0433,0.0394,0.0396,0.0413,0.0422,0.0708,0.0728,0.0692,0.0777,0.0795,0.0882,0.0888,0.0892,0.0894,0,0,0,0,0,0,0,0.0323,0.0319,0.0288,0.0374,0.038,0.0331,0.0337,0.0407,0.0521,0.0396,0.0407,0.0392,0.0716,0.0681,0.0705,0.0801,0.0881,0.089,0.0896,0.09,0.0873,0.0866,0,0,0,0,0,0,0.0333,0.0323,0.029,0.0285,0.0368,0.0325,0.0331,0.0344,0.051,0.0537,0.0385,0.04,0.0661,0.0693,0.0721,0.0855,0.0892,0.0901,0.0906,0.0879,0.0871,0.0864,0,0,0,0,0,0,0.0334,0.0331,0.0294,0.0299,0.0291,0.0318,0.0329,0.0338,0.0383,0.0495,0.0536,0.0432,0.0668,0.0707,0.0752,0.0867,0.0905,0.0914,0.0887,0.0877,0.0868,0.0977,0,0,0,0,0,0,0.0336,0.0333,0.0368,0.03,0.0291,0.0276,0.0322,0.0331,0.0356,0.0376,0.0546,0.0588,0.0677,0.0735,0.0761,0.0881,0.0922,0.0895,0.0882,0.0871,0.0982,0.0972,0.0964,0,0,0,0,0,0.0338,0.0319,0.037,0.0367,0.0332,0.0277,0.0269,0.0312,0.0351,0.0379,0.041,0.0587,0.0678,0.0736,0.0769,0.0896,0.0901,0.0886,0.0872,0.0986,0.0974,0.0964,0,0,0,0,0,0,0.0283,0.0331,0.0387,0.0371,0.0374,0.0307,0.0314,0.0324,0.0355,0.0395,0.0502,0.0541,0.0648,0.0659,0.0721,0.0811,0.0819,0.081,0.0894,0.0884,0.0876,0.0956,0.093,0,0,0,0,0,0.03,0.0325,0.0352,0.0317,0.036,0.0347,0.0336,0.036,0.0355,0.038,0.0479,0.0531,0.0581,0.0647,0.07,0.0735,0.0783,0.0811,0.0802,0.0797,0.0858,0.1002,0.1021,0.0816,0.0816,0.0816,0,0,0.0239,0.027,0.0275,0.0313,0.0328,0.0348,0.0365,0.0359,0.0367,0.0422,0.0491,0.0543,0.057,0.0632,0.068,0.0687,0.0832,0.0778,0.0776,0.0842,0.0991,0.1014,0.1034,0.0806,0.0808,0.0809,0,0,0.0128,0.0209,0.0241,0.027,0.0323,0.0333,0.0354,0.0365,0.0414,0.0414,0.0467,0.0534,0.0598,0.0655,0.0678,0.0615,0.0792,0.0644,0.0706,0.0845,0.087,0.0893,0.0838,0.0856,0.0635,0.0636,0.0636,0,0.0099,0.0134,0.0216,0.0257,0.0288,0.0346,0.038,0.0386,0.039,0.0437,0.0464,0.0541,0.0611,0.068,0.0673,0.0636,0.0682,0.079,0.086,0.0883,0.0906,0.0846,0.0865,0.0639,0.0639,0.0638,0.0638,0,0.0035,0.0088,0.0093,0.0216,0.0247,0.0266,0.0335,0.039,0.0452,0.0471,0.0581,0.0603,0.0676,0.0689,0.0695,0.0859,0.082,0.0864,0.095,0.0938,0.0865,0.0884,0.0644,0.0643,0.0642,0.0641,0,0,-0.0029,0.0061,0.0077,0.0156,0.0259,0.0275,0.0331,0.0426,0.0498,0.0544,0.0633,0.0702,0.0781,0.0799,0.0832,0.0947,0.1098,0.1003,0.1009,0.1054,0.1313,0.1139,0.114,0.1233,0.1239,0.1245,0.1154,0,-0.0042,0.0011,0.0064,0.0128,0.021,0.0305,0.0355,0.043,0.0516,0.0612,0.0681,0.078,0.0796,0.0879,0.0998,0.1114,0.1175,0.1111,0.1224,0.1223,0.1169,0.1169,0.1266,0.1168,0.1172,0.1176,0.1178,0,-0.0043,0.0009,0.0073,0.019,0.0247,0.0283,0.0464,0.0506,0.0635,0.0713,0.0827,0.0893,0.1037,0.1062,0.1262,0.125,0.1304,0.1352,0.1351,0.1202,0.1092,0.1199,0.1212,0.1209,0.1206,0.1204,0.1202,0,-0.006,0.0035,0.0097,0.0133,0.026,0.0337,0.0424,0.0558,0.0652,0.0809,0.0898,0.1043,0.1141,0.1294,0.1358,0.1388,0.1539,0.1564,0.1397,0.1375,0.1526,0.1505,0.1717,0.1717,0.1717,0.1717,0.1718,0,-0.0051,-0.0002,0.0108,0.0147,0.0271,0.0362,0.0513,0.0607,0.0766,0.0876,0.0978,0.106,0.1256,0.1327,0.1393,0.1413,0.1553,0.1427,0.1398,0.1528,0.151,0.153,0.1509,0.1714,0.1714,0.1715,0.1716,0,-0.0088,-0.003,0.0048,0.0195,0.0263,0.0353,0.0565,0.066,0.0817,0.0961,0.1029,0.1148,0.1232,0.1278,0.145,0.1422,0.147,0.1421,0.1418,0.1384,0.1181,0.1165,0.1266,0.126,0.1255,0.1251,0.1248,0,-0.0095,-0.0066,0.007,0.0138,0.0217,0.0378,0.0487,0.0676,0.0753,0.0982,0.1007,0.1135,0.1185,0.1219,0.1286,0.1285,0.1292,0.1262,0.1374,0.1202,0.1163,0.1154,0.1144,0.124,0.1239,0.1238,0.1237,0,-0.0114,-0.0091,-0.0037,0.0104,0.0225,0.0351,0.0499,0.0577,0.0778,0.092,0.1044,0.1111,0.1122,0.116,0.1123,0.1143,0.129,0.1214,0.1226,0.1331,0.1172,0.1136,0.1132,0.122,0.1223,0.1224,0.1225,0,-0.014,-0.0124,-0.0058,0.0073,0.0196,0.0296,0.0394,0.0526,0.066,0.0909,0.0928,0.1034,0.1133,0.1074,0.1055,0.1039,0.1066,0.1097,0.1117,0.1135,0.1135,0.0916,0.0889,0,0,0,0,0,-0.0147,-0.0143,-0.0066,0.0048,0.0151,0.0236,0.0384,0.0471,0.0661,0.0749,0.0872,0.0895,0.0945,0.0944,0.09,0.0905,0.0996,0.0844,0.1025,0.1129,0.1148,0.1158,0,0,0,0,0,0,-0.0155,-0.0132,-0.0101,0.0,0.008,0.0192,0.0287,0.0408,0.0452,0.0656,0.0659,0.0836,0.0826,0.0962,0.0882,0.088,0.098,0.0901,0.0899,0.1118,0.1135,0.115,0.1168,0,0,0,0,0]},{"header":{"parameterUnit":"m.s-1","parameterCategory":2,"la1":30.2991,"la2":30.254,"lo1":-89.0895,"lo2":-89.0444,"dy":0.0017,"dx":0.0017,"nx":28,"ny":28,"refTime":"2025-05-19T09:00:00:Z","depth":"4","parameterNumber":3,"parameterNumberName":"V-component_of_CURRENTS"},"data":[0,0,0,0,0,0,0,0,0,0,0,0,0,0,0,0,0,0,0,0,0,0,0,0,0,0,0,0,0,0,0,0,0,0,0,0,0,0,0,0,0,0,0,0,0,0,0,0,0,0,0,0,0,0,0,0,0,0,0.0244,0.0245,0,0.0174,0.0171,0.0168,0.0014,0.0013,0.0012,0.0011,-0.0153,-0.0156,-0.016,0,0,0,0,0,0,0,0,0,0,0,0,0,0.0164,0.0165,0.0244,0.0245,0.0246,0.0174,0.0171,0.0168,0.0014,0.0013,0.0011,0.001,-0.0152,-0.0156,-0.016,0,0,0,0,0,0,0,0,0,0,0,0,0,0.0136,0.0166,0.0244,0.0177,0.0172,0.0175,0.0171,0.0167,0.0014,0.0013,0.0011,0.0009,-0.0151,-0.0156,-0.016,-0.0157,0,0,-0.0176,-0.0178,0,0,0,0,0,0,0,0,0.0138,0.0137,0.0186,0.0182,0.0176,0.012,0.0084,0.0062,0.0015,0.0051,0.0011,0.0009,-0.0055,-0.0068,-0.0107,-0.0165,-0.0172,-0.0176,-0.0179,-0.0181,-0.0183,0,0,0,0,0,0,0,0.014,0.0139,0.0194,0.0188,0.0182,0.0125,0.0117,0.0077,-0.001,0.0048,0.0042,0.0069,-0.0061,-0.0102,-0.0112,-0.0174,-0.0176,-0.018,-0.0183,-0.0185,-0.0335,-0.0336,0,0,0,0,0,0,0.02,0.0141,0.0196,0.0194,0.0178,0.0129,0.012,0.0122,-0.0008,-0.0022,0.0071,0.0063,-0.0093,-0.0106,-0.0118,-0.0201,-0.0181,-0.0186,-0.0189,-0.0334,-0.0336,-0.0337,0,0,0,0,0,0,0.0198,0.0204,0.02,0.0184,0.0183,0.0136,0.0137,0.0122,0.0053,0.0015,-0.0007,0.0018,-0.0095,-0.0111,-0.0173,-0.0206,-0.0188,-0.0192,-0.0333,-0.0335,-0.0336,-0.0316,0,0,0,0,0,0,0.0195,0.0203,0.0199,0.0188,0.0187,0.0198,0.0141,0.0123,0.0086,0.0072,-0.0036,-0.0052,-0.0097,-0.0165,-0.0177,-0.0212,-0.0196,-0.0332,-0.0334,-0.0336,-0.0315,-0.0316,-0.0317,0,0,0,0,0,0.0192,0.0217,0.0198,0.0206,0.019,0.0202,0.0191,0.0138,0.0085,0.0062,-0.0015,-0.005,-0.0187,-0.0169,-0.0184,-0.0221,-0.0331,-0.0333,-0.0335,-0.0315,-0.0316,-0.0317,0,0,0,0,0,0,0.0206,0.0206,0.0184,0.0212,0.0207,0.0183,0.0165,0.013,0.0045,0.0009,-0.0054,-0.0074,-0.0158,-0.0178,-0.0157,-0.027,-0.0268,-0.0273,-0.0247,-0.0249,-0.025,-0.023,-0.02,0,0,0,0,0,0.0211,0.0213,0.0213,0.0242,0.0224,0.0182,0.017,0.0135,0.0088,0.0044,-0.0014,-0.0092,-0.0173,-0.02,-0.0271,-0.0306,-0.0315,-0.0343,-0.0344,-0.0345,-0.0339,-0.0348,-0.0348,-0.0344,-0.0344,-0.0344,0,0,0.0243,0.024,0.0248,0.0243,0.0212,0.0205,0.0161,0.0142,0.012,0.0045,-0.0028,-0.0109,-0.019,-0.0258,-0.0294,-0.0277,-0.0357,-0.0348,-0.0348,-0.0342,-0.035,-0.035,-0.035,-0.0346,-0.0345,-0.0345,0,0,0.0311,0.0277,0.0286,0.0272,0.0248,0.0214,0.0209,0.0163,0.0104,0.0052,-0.0033,-0.0122,-0.0206,-0.0278,-0.0325,-0.0366,-0.038,-0.039,-0.0359,-0.0368,-0.0367,-0.0367,-0.0398,-0.04,-0.0367,-0.0367,-0.0367,0,0.0337,0.0349,0.03,0.03,0.0294,0.0219,0.0222,0.0163,0.011,0.0062,0.0031,-0.0151,-0.0223,-0.0322,-0.0344,-0.0373,-0.0369,-0.0346,-0.0366,-0.0366,-0.0366,-0.0397,-0.04,-0.0367,-0.0367,-0.0367,-0.0367,0,0.0395,0.0401,0.0404,0.0363,0.0345,0.0338,0.0272,0.0214,0.0133,0.008,-0.0048,-0.015,-0.0245,-0.0296,-0.0335,-0.0387,-0.0385,-0.0382,-0.0354,-0.0365,-0.0398,-0.0402,-0.0366,-0.0366,-0.0366,-0.0366,0,0,0.0446,0.0442,0.0443,0.0434,0.0365,0.0364,0.0297,0.0222,0.0168,0.0069,-0.0003,-0.0159,-0.022,-0.0277,-0.0347,-0.0359,-0.0381,-0.0352,-0.0352,-0.0368,-0.0397,-0.0355,-0.0355,-0.0356,-0.0356,-0.0356,-0.0427,0,0.0487,0.0526,0.0501,0.0516,0.0502,0.0415,0.0373,0.0289,0.0188,0.0101,-0.005,-0.0138,-0.0209,-0.0252,-0.029,-0.0367,-0.0384,-0.0363,-0.0398,-0.04,-0.0347,-0.0356,-0.0356,-0.0429,-0.043,-0.0431,-0.0431,0,0.0505,0.0533,0.0579,0.056,0.0543,0.0548,0.0437,0.0391,0.0237,0.0158,0.0034,-0.0068,-0.0173,-0.0202,-0.0321,-0.029,-0.0337,-0.0386,-0.0389,-0.0353,-0.0362,-0.0415,-0.0438,-0.0437,-0.0437,-0.0436,-0.0436,0,0.0513,0.0559,0.0605,0.0604,0.0586,0.0576,0.0533,0.0406,0.0367,0.0212,0.017,0.0008,-0.0057,-0.0143,-0.0275,-0.0272,-0.0383,-0.0393,-0.041,-0.0409,-0.0435,-0.0434,-0.0444,-0.0444,-0.0444,-0.0444,-0.0444,0,0.0508,0.0541,0.0634,0.0647,0.0693,0.0634,0.0626,0.0541,0.0446,0.0389,0.0227,0.0147,-0.0027,-0.0134,-0.0247,-0.0345,-0.036,-0.0408,-0.0416,-0.043,-0.0428,-0.0439,-0.0437,-0.0446,-0.0446,-0.0445,-0.0445,0,0.0474,0.0542,0.0605,0.0662,0.0701,0.0716,0.0736,0.0715,0.0613,0.0535,0.0504,0.029,0.0132,-0.0043,-0.0206,-0.0284,-0.0395,-0.0421,-0.0441,-0.045,-0.0429,-0.0426,-0.0444,-0.0443,-0.0442,-0.0441,-0.044,0,0.0461,0.0502,0.0642,0.0731,0.0776,0.0829,0.0865,0.0802,0.0738,0.06,0.0527,0.0393,0.0231,0.001,-0.017,-0.0364,-0.0383,-0.0426,-0.042,-0.0418,-0.0425,-0.0423,-0.0422,-0.0439,-0.0438,-0.0438,-0.0438,0,0.0432,0.0499,0.0555,0.0749,0.0857,0.0942,0.0939,0.0913,0.0788,0.0769,0.057,0.0432,0.0241,0.0016,-0.0118,-0.0268,-0.0393,-0.0417,-0.042,-0.0414,-0.0412,-0.042,-0.0419,-0.0435,-0.0435,-0.0435,-0.0436,0,0.0415,0.046,0.0577,0.0735,0.0897,0.0952,0.0964,0.0891,0.0848,0.066,0.0607,0.0399,0.028,0.0064,-0.0084,-0.0201,-0.023,-0.0248,-0.0261,-0.0266,-0.0191,-0.0161,-0.0107,0,0,0,0,0,0.0397,0.0443,0.0572,0.071,0.087,0.0947,0.0969,0.0938,0.084,0.0732,0.0662,0.0477,0.0259,0.0114,0.0007,-0.0077,-0.0259,-0.0204,-0.0288,-0.0417,-0.042,-0.0357,0,0,0,0,0,0,0.0385,0.0473,0.0528,0.0675,0.0767,0.0889,0.0902,0.0847,0.072,0.064,0.0499,0.0482,0.0232,0.0327,0.0012,-0.0029,-0.0087,-0.0308,-0.0309,-0.0414,-0.0418,-0.0421,-0.0358,0,0,0,0,0]}]]